#timestamp,LO_Frequency,Hit,StdDev 
1578740415.1,286046998.0,N
1578740416.0,286046998.0,N
1578740435.8,286046997.3,N
1578740455.7,286047001.0,N
1578740475.5,286046996.5,N
1578740495.3,286046999.1,N
1578740515.2,286046999.3,N
1578740535.0,286046999.2,N
1578740535.9,286046999.2,N
1578740555.8,286046996.6,N
1578740575.6,286046999.5,N
1578740595.4,286046997.1,N
1578740615.3,286046999.2,N
1578740635.1,286046999.3,N
1578740636.0,286046999.3,N
1578740655.8,286046998.9,N
1578740675.7,286047000.0,N
1578740695.5,286046999.4,N
1578740715.3,286046999.4,N
1578740735.2,286046997.7,N
1578740755.0,286046994.9,Y
1578740755.9,286046994.9,P
1578740775.8,286047001.2,N
1578740795.6,286046998.8,N
1578740815.4,286046998.8,N
1578740835.3,286046999.1,N
1578740855.1,286046996.5,N
1578740875.8,286047000.9,N
1578740895.7,286047000.5,N
1578740915.5,286047002.4,N
1578740935.4,286047002.1,N
1578740955.2,286046999.7,N
1578740975.0,286047001.4,N
1578740975.9,286047001.4,N
1578740995.8,286047001.6,N
1578741015.6,286047002.6,N
1578741035.4,286047002.9,N
1578741055.3,286047005.9,N
1578741075.1,286047005.5,N
1578741095.9,286047003.6,N
1578741115.7,286047005.3,N
1578741135.5,286047005.3,N
1578741155.4,286047003.3,N
1578741175.2,286047001.7,N
1578741195.0,286047001.4,N
1578741195.9,286047001.4,N
1578741215.8,286047000.0,N
1578741235.6,286046999.9,N
1578741255.5,286047000.3,N
1578741275.3,286047000.7,N
1578741295.1,286046998.2,N
1578741315.9,286047001.0,N
1578741335.7,286046998.7,N
1578741355.5,286047000.0,N
1578741375.4,286047000.7,N
1578741395.2,286047000.5,N
1578741415.1,286047000.7,N
1578741416.0,286047000.7,N
1578741435.8,286047001.2,N
1578741455.6,286046997.5,N
1578741475.5,286046998.0,N
1578741495.3,286046995.5,N
1578741515.1,286046995.9,N
1578741535.9,286046996.0,N
1578741555.7,286046995.4,N
1578741575.6,286046995.5,N
1578741595.4,286046995.4,N
1578741615.2,286046996.0,N
1578741635.1,286046996.4,N
1578741636.0,286046996.4,N
1578741655.8,286046999.2,N
1578741675.6,286046997.8,N
1578741695.5,286046995.1,N
1578741715.3,286046997.9,N
1578741735.2,286046995.0,N
1578741755.9,286046995.7,N
1578741775.7,286046996.8,N
1578741795.6,286046998.7,N
1578741815.4,286046997.0,N
1578741835.2,286046999.5,N
1578741855.1,286046997.3,N
1578741856.0,286046997.3,N
1578741875.8,286046997.1,N
1578741895.7,286046996.7,N
1578741915.5,286046996.9,N
1578741935.3,286046998.8,N
1578741955.2,286046998.2,N
1578741975.9,286046996.8,N
1578741995.7,286046998.7,N
1578742015.6,286046998.6,N
1578742035.4,286046998.4,N
1578742055.3,286046994.9,Y
1578742075.1,286046999.1,P
1578742076.0,286046999.1,N
1578742095.8,286046998.5,N
1578742115.7,286046998.7,N
1578742135.5,286046998.9,N
1578742155.3,286046999.8,N
1578742175.2,286047000.3,N
1578742195.0,286047002.3,N
1578742195.9,286047002.3,N
1578742215.8,286047004.2,N
1578742235.6,286047001.5,N
1578742255.4,286047002.7,N
1578742275.3,286047000.5,N
1578742295.1,286047001.0,N
1578742315.8,286046999.9,N
1578742335.7,286047000.4,N
1578742355.5,286046999.8,N
1578742375.4,286047001.7,N
1578742395.2,286047002.8,N
1578742415.0,286047000.1,N
1578742415.9,286047000.1,N
1578742435.8,286047000.4,N
1578742455.6,286047002.7,N
1578742475.5,286047004.0,N
1578742495.3,286047002.6,N
1578742515.1,286047001.4,N
1578742535.9,286047001.2,N
1578742555.7,286046998.6,N
1578742575.5,286046999.0,N
1578742595.4,286047000.5,N
1578742615.2,286047000.1,N
1578742635.1,286047000.6,N
1578742636.0,286047000.6,N
1578742655.8,286046999.7,N
1578742675.6,286046999.8,N
1578742695.5,286047000.4,N
1578742715.3,286047001.2,N
1578742735.2,286046998.3,N
1578742755.9,286047002.8,N
1578742775.7,286046998.4,N
1578742795.6,286046999.0,N
1578742815.4,286047000.7,N
1578742835.2,286046999.0,N
1578742855.1,286046998.5,N
1578742856.0,286046998.5,N
1578742875.8,286046998.9,N
1578742895.7,286046998.7,N
1578742915.5,286047001.0,N
1578742935.3,286047000.0,N
1578742955.2,286047000.7,N
1578742975.0,286047000.9,N
1578742975.9,286047000.9,N
1578742995.7,286047001.0,N
1578743015.6,286046998.6,N
1578743035.4,286047000.3,N
1578743055.3,286047001.0,N
1578743075.1,286046999.9,N
1578743076.0,286046999.9,N
1578743095.8,286047000.8,N
1578743115.7,286047000.3,N
1578743135.5,286047000.6,N
1578743155.3,286047001.1,N
1578743175.2,286047000.7,N
1578743195.0,286047001.1,N
1578743195.9,286047001.1,N
1578743215.8,286047002.0,N
1578743235.6,286047003.5,Y
1578743255.4,286047004.8,P
1578743275.3,286047004.8,N
1578743295.1,286047002.9,N
1578743315.9,286047003.4,N
1578743335.7,286047003.8,N
1578743355.5,286047004.3,N
1578743375.4,286047004.3,N
1578743395.2,286047004.0,N
1578743415.0,286047004.3,Y
1578743415.9,286047004.3,P
1578743435.8,286046998.4,P
1578743455.6,286046998.6,N
1578743475.5,286046998.2,N
1578743495.3,286046999.8,N
1578743515.1,286047002.7,N
1578743535.9,286047000.8,N
1578743555.7,286047000.3,N
1578743575.5,286047000.0,N
1578743595.4,286047001.0,N
1578743615.2,286047000.4,N
1578743635.0,286047002.7,N
1578743636.0,286047002.7,N
1578743655.8,286047002.1,N
1578743675.6,286047000.4,N
1578743695.5,286046999.3,N
1578743715.3,286047000.9,N
1578743735.1,286047000.6,N
1578743755.9,286047002.0,N
1578743775.7,286047001.8,N
1578743795.5,286047001.8,N
1578743815.4,286047002.3,N
1578743835.2,286047002.1,N
1578743855.1,286047002.2,N
1578743856.0,286047002.2,N
1578743875.8,286047001.6,N
1578743895.6,286047003.8,N
1578743915.5,286047002.0,N
1578743935.3,286046999.8,N
1578743955.2,286047000.5,N
1578743975.9,286046998.5,N
1578743995.7,286046998.3,N
